Philadelphia, Tennessee, United States (37846)
Lat: 35.68N, Lon: 84.4W
Wx Zone: TNZ068
Local Info
Past Weather Observations for Today

NOTE: This archive is for the closest National Weather Service station to Philadelphia. Information may differ from the station used for current weather conditions.

Click here for Long-term Archive

Time Weather Temperature Dewpoint Humidity Pressure Winds Precip Visibility
22:53
Overcast
34°F / 1°C 25°F / -4°C 70% 30.18 in
(1022 mb)
NNE 10.4 mph
(NNE 17 kph)
- 10SM
21:53
Overcast
34°F / 1°C 25°F / -4°C 70% 30.15 in
(1021 mb)
N 5.8 mph
(N 9 kph)
- 10SM
20:53
Overcast
34°F / 1°C 27°F / -3°C 75% 30.15 in
(1021 mb)
N 10.4 mph
(N 17 kph)
- 10SM
19:53
Overcast
34°F / 1°C 27°F / -3°C 75% 30.12 in
(1020 mb)
N 6.9 mph
(N 11 kph)
0.00 in
(0.00 mm)
10SM
19:43
Overcast
34°F / 1°C 27°F / -3°C 75% 30.12 in
(1020 mb)
N 6.9 mph
(N 11 kph)
0.00 in
(0.00 mm)
10SM
19:18
Overcast
34°F / 1°C 27°F / -3°C 75% 30.12 in
(1020 mb)
N 4.6 mph
(N 7 kph)
0.00 in
(0.00 mm)
10SM
18:53
Overcast
36°F / 2°C 27°F / -3°C 70% 30.09 in
(1019 mb)
Calm - 10SM
18:38
Overcast
36°F / 2°C 27°F / -3°C 70% 30.09 in
(1019 mb)
Calm - 10SM
18:13
Overcast
36°F / 2°C 28°F / -2°C 75% 30.09 in
(1019 mb)
Calm - 10SM
17:53
Overcast
36°F / 2°C 28°F / -2°C 75% 30.06 in
(1018 mb)
Calm - 10SM
16:53
Overcast
36°F / 2°C 28°F / -2°C 75% 30.06 in
(1018 mb)
Calm - 10SM
16:20
Overcast
36°F / 2°C 28°F / -2°C 75% 30.04 in
(1017 mb)
Calm - 10SM
15:53
Overcast
36°F / 2°C 28°F / -2°C 75% 30.04 in
(1017 mb)
Calm - 10SM
15:46
Overcast
36°F / 2°C 28°F / -2°C 75% 30.04 in
(1017 mb)
Calm - 10SM
15:23
Overcast
36°F / 2°C 28°F / -2°C 75% 30.04 in
(1017 mb)
Calm - 10SM
15:00
Overcast
36°F / 2°C 28°F / -2°C 75% 30.01 in
(1016 mb)
N 4.6 mph
(N 7 kph)
- 10SM
14:53
Overcast
36°F / 2°C 28°F / -2°C 75% 30.01 in
(1016 mb)
N 5.8 mph
(N 9 kph)
0.00 in
(0.00 mm)
10SM
13:53
Overcast
Light Snow
34°F / 1°C 28°F / -2°C 81% 30.01 in
(1016 mb)
NW 6.9 mph
(NW 11 kph)
0.00 in
(0.00 mm)
10SM
12:53
Overcast
34°F / 1°C 28°F / -2°C 81% 30.01 in
(1016 mb)
N 4.6 mph
(N 7 kph)
0.00 in
(0.00 mm)
10SM
12:18
Overcast
34°F / 1°C 28°F / -2°C 81% 30.01 in
(1016 mb)
N 6.9 mph
(N 11 kph)
0.00 in
(0.00 mm)
10SM
11:53
Overcast
Light Snow
34°F / 1°C 30°F / -1°C 87% 30.01 in
(1016 mb)
NE 4.6 mph
(NE 7 kph)
0.00 in
(0.00 mm)
7SM
10:53
Overcast
Fog And Mist
34°F / 1°C 30°F / -1°C 87% 30.01 in
(1016 mb)
Calm 0.00 in
(0.00 mm)
4SM
10:44
Overcast
Fog And Mist
32°F / 0°C 30°F / -1°C 93% 30.01 in
(1016 mb)
Calm 0.00 in
(0.00 mm)
4SM
10:34
Overcast
Light Snow
32°F / 0°C 30°F / -1°C 93% 29.98 in
(1015 mb)
Calm 0.00 in
(0.00 mm)
2 1/2SM
10:08
Overcast
Light Snow
32°F / 0°C 30°F / -1°C 93% 29.98 in
(1015 mb)
Calm 0.00 in
(0.00 mm)
2 1/2SM
09:53
Overcast
Light Snow
32°F / 0°C 30°F / -1°C 93% 29.98 in
(1015 mb)
Calm 0.00 in
(0.00 mm)
3SM
09:08
Overcast
Light Snow
30°F / -1°C 30°F / -1°C 100% 29.95 in
(1014 mb)
SSW 4.6 mph
(SSW 7 kph)
0.00 in
(0.00 mm)
4SM
08:53
Overcast
Light Snow
30°F / -1°C 30°F / -1°C 100% 29.95 in
(1014 mb)
SSW 5.8 mph
(SSW 9 kph)
0.00 in
(0.00 mm)
6SM
08:44
Overcast
30°F / -1°C 28°F / -2°C 93% 29.95 in
(1014 mb)
SSW 4.6 mph
(SSW 7 kph)
0.00 in
(0.00 mm)
7SM
08:00
Overcast
Fog And Mist
30°F / -1°C 30°F / -1°C 100% 29.92 in
(1013 mb)
SW 4.6 mph
(SW 7 kph)
0.00 in
(0.00 mm)
3SM
07:53
Overcast
Light Snow
30°F / -1°C 28°F / -2°C 93% 29.92 in
(1013 mb)
SSW 4.6 mph
(SSW 7 kph)
0.00 in
(0.00 mm)
2 1/2SM
07:44
Overcast
Light Snow
30°F / -1°C 28°F / -2°C 93% 29.92 in
(1013 mb)
SW 4.6 mph
(SW 7 kph)
0.00 in
(0.00 mm)
2 1/2SM
06:53
Overcast
Light Snow
30°F / -1°C 30°F / -1°C 100% 29.89 in
(1012 mb)
SW 4.6 mph
(SW 7 kph)
0.02 in
(0.51 mm)
3SM
06:49
Overcast
Light Snow
30°F / -1°C 30°F / -1°C 100% 29.89 in
(1012 mb)
SW 4.6 mph
(SW 7 kph)
0.02 in
(0.51 mm)
2 1/2SM
06:16
Overcast
Light Snow
30°F / -1°C 28°F / -2°C 93% 29.89 in
(1012 mb)
SW 5.8 mph
(SW 9 kph)
0.00 in
(0.00 mm)
1 1/2SM
06:11
Overcast
Light Snow
30°F / -1°C 30°F / -1°C 100% 29.89 in
(1012 mb)
SW 6.9 mph
(SW 11 kph)
0.00 in
(0.00 mm)
2SM
06:03
Overcast
Light Snow
30°F / -1°C 28°F / -2°C 93% 29.89 in
(1012 mb)
SW 8.1 mph
(SW 13 kph)
0.00 in
(0.00 mm)
3SM
05:53
Overcast
Fog And Mist
30°F / -1°C 30°F / -1°C 100% 29.89 in
(1012 mb)
SSW 6.9 mph
(SSW 11 kph)
0.01 in
(0.25 mm)
4SM
04:53
Overcast
Fog And Mist
30°F / -1°C 28°F / -2°C 93% 29.89 in
(1012 mb)
SW 5.8 mph
(SW 9 kph)
0.00 in
(0.00 mm)
5SM
04:51
Overcast
Fog And Mist
30°F / -1°C 28°F / -2°C 93% 29.89 in
(1012 mb)
SW 4.6 mph
(SW 7 kph)
0.00 in
(0.00 mm)
5SM
03:53
Overcast
Light Snow
30°F / -1°C 28°F / -2°C 93% 29.89 in
(1012 mb)
SW 4.6 mph
(SW 7 kph)
0.00 in
(0.00 mm)
7SM
02:53
Overcast
Light Snow
30°F / -1°C 28°F / -2°C 93% 29.89 in
(1012 mb)
SW 4.6 mph
(SW 7 kph)
0.00 in
(0.00 mm)
7SM
01:53
Overcast
Light Snow
30°F / -1°C 28°F / -2°C 93% 29.92 in
(1013 mb)
S 3.5 mph
(S 6 kph)
0.00 in
(0.00 mm)
7SM
01:30
Overcast
Light Snow
30°F / -1°C 28°F / -2°C 93% 29.92 in
(1013 mb)
SSE 3.5 mph
(SSE 6 kph)
0.00 in
(0.00 mm)
6SM
01:17
Overcast
Light Snow
30°F / -1°C 28°F / -2°C 93% 29.92 in
(1013 mb)
SSE 5.8 mph
(SSE 9 kph)
0.00 in
(0.00 mm)
7SM
00:53
Overcast
Light Snow
30°F / -1°C 28°F / -2°C 93% 29.95 in
(1014 mb)
SW 6.9 mph
(SW 11 kph)
0.00 in
(0.00 mm)
8SM
00:40
Overcast
Light Snow
30°F / -1°C 28°F / -2°C 93% 29.95 in
(1014 mb)
SW 6.9 mph
(SW 11 kph)
0.00 in
(0.00 mm)
8SM
Time Weather Temperature Dewpoint Humidity Pressure Winds Precip Visibility


Weather for websites

WeatherForYou.com, LLC is not responsible for any damages or problems caused by this service. Current weather conditions are obtained from the closest station including government and personal stations which may have varying degrees of accuracy. Weather forecasts are derived from the NOAA NDFD. Like all things, this site belongs to Jesus Christ... He just trusts me to maintain it. If you have any questions or comments email webmaster@weatherforyou.com

Copyright © 2015, WeatherForYou.com LLC. All rights reserved.